Location: Buttermere
(51.3333°N, 1.5167°W)
Time: 22:06:57
(UTC+00:00)

Cosmos 2278 Rocket - Pass Details

Date: 18 September 2020
Orbit: 841 x 845 km, 71.0° (Epoch: 20 October)

Event Time Altitude Azimuth Distance (km) Brightness Sun altitude
Exits shadow 23:04:24 36° 352° (N) 1,305 3.5 -36.0°
Drops below altitude 10° 23:08:13 10° 23° (NNE) 2,472 5.1 -36.1°
Sets 23:10:47 0° 29° (NNE) 3,411 5.9 -36.3°
